Weather in Ust-Tarka

Russia / Novosibirsk Oblast     55°33′56″N   75°42′29″E
temp.,
°C
wind,
m/s
gust,
m/s
humid.,
%
clouds,
%
prec.,
mm/h
press.,
hPa
HPBL,
m
8 march, mon
mon801:00−2s91695100 1.1 1007782
04:00+1ssw111897100 1.1 1003979
07:00+1ssw101888100 1.4 1001875
10:000ssw101696100 1.3 999909
13:00−6w71293100 3.7 1002617
16:00−8wnw7128799 0.1 1006656
19:00−9w5128996 0.1 1011532
22:00−12wsw5139099 0.0 1014398
9 march, tue
tue901:00−13wsw6129199 0.0 1017398
04:00−15ssw5119366 0.0 1017209
07:00−14sw6129183 0.0 1018390
10:00−15ssw6139288 0.0 1018355
13:00−11ssw7129294 0.0 1018449
16:00−9ssw71192100 0.0 1017500
19:00−9ssw61492100 0.1 1015544
22:00−10ssw71590100 0.0 1014441
10 march, wed
wed1001:00−10sw7148896 0.0 1014408
04:00−11sw5129299 0.0 1014298
07:00−12sw489599 0.0 1014185
10:00−11sw3496100 0.0 1013111
13:00−8sse2291100 0.0 1012241
16:00−6ese4694100 0.1 1009349
19:00−7ese5994100 0.9 1004434
22:00−8e4895100 0.9 1000426
11 march, thu
thu1101:00−9n2296100 1.5 99828
04:00−10wsw51095100 0.3 1000288
07:00−13sw5109591 0.3 1003215
10:00−11sw6129388 0.1 1005407
13:00−8sw8128994 0.2 1007777
16:00−9sw81386100 0.0 1009790
19:00−10ssw61387100 0.0 1010570
22:00−12s4109497 0.0 1010240
12 march, fri
fri1201:00−12ssw389698 0.1 1009196
04:00−16sw5109492 0.0 1010243
07:00−20sw5129681 0.1 1011309
10:00−19sw6119496 0.0 1012489
13:00−17sw7119198 0.1 1014660
16:00−15wsw7987100 0.1 1016758
19:00−16wsw5990100 0.1 1017729
22:00−20w41095100 0.0 1018314